星链-35179(STARLINK-35179)

导读

STARLINK-35179是美国太空探索技术公司(SpaceX)于2025年10月19日发射的星链(Starlink)低轨通信卫星,隶属于Starlink V1.0平台,运行在近地轨道,近地点约355公里、远地点约357公里,轨道倾角43.001°。作为星链全球卫星互联网项目的组成部分,该卫星旨在为全球提供高速低延迟互联网服务,可服务偏远地区,并支持军事、航空等领域通信。卫星采用霍尔推进器,具备自主避撞能力,寿命末期会受控坠入大气层烧毁。

Basic Information
目录编号:
66066
目录名称:
STARLINK-35179
国际标识:
2025-235J
轨道中心:
EARTH
卫星名称:
星链-35179
卫星全名:
星链-35179(STARLINK-35179)
卫星状态:
在轨 (已飞行320 天)
发射日期:
2025-10-19 UTC
国别 :
美国 (US)
星等 :
--
Orbit Information
数据来源 国际轨道数据
星历时间: 2026-09-04T12:21:30+0800
6小时前
查看轨道信息
半长轴: 6840.818km
偏心率: 0.0001392
轨道倾角: 53.160°
近地点辐角 124.468°
升交点赤经 135.893°
平近点角 235.645°
近地点: 461.728km
远地点: 463.634km
周期: 93.847分钟
每日圈数: 15.344077
Detailed Information
固有亮度:
5
最大亮度:
2.5
卫星平台:
Starlink V1.0
覆盖范围:
全球
运营商:
太空探索技术公司
运营商所在国:
美国
制造商(研发单位):
太空探索技术公司
制造商所在国:
美国
使用方式:
暂无
Satellite Introduction
Starlink 计划是 SpaceX 推出的全球卫星互联网项目,通过发射低轨道卫星,为全球尤其是偏远地区提供高速、低延迟的互联网服务。自 2019 年起,Starlink 已部署数千颗卫星,旨在缩小全球数字鸿沟,推动互联网普及。该项目还为军事、航空等行业提供通信支持,带来广泛经济效益。
2D Orbit Map
3D Orbit Map
Orbit Altitude Analysis Chart
Orbit Inclination Analysis Chart
Orbit Comprehensive Analysis Chart
View Comprehensive Chart
Conjunction Data List
Event ID Objects TCA Miss Dist (km) Collision Risk Probability Collision Risk Index (CRI) Action
CDM_260902-012400-346206-606621
2026-09-02T
01:24:56+0000
0.796 km
远距离
2.218341E-5 中风险 0.62
CDM_260905-234205-235806-606621
2026-09-05T
23:42:11+0000
0.755 km
远距离
2.115876E-5 中风险 0.62
CDM_260906-020205-235806-606621
2026-09-06T
02:02:52+0000
1.378 km
极远距离
2.801973E-6 低风险 0.44
CDM_260904-125304-763006-606621
2026-09-04T
12:53:35+0000
2.179 km
极远距离
2.052384E-6 低风险 0.41
CDM_260901-103705-285206-606621
2026-09-01T
10:37:20+0000
2.343 km
极远距离
1.750228E-6 低风险 0.4
CDM_260905-025905-284706-606622
2026-09-05T
02:59:11+0000
2.413 km
极远距离
1.669696E-6 低风险 0.39
CDM_260905-082705-284406-606621
2026-09-05T
08:27:00+0000
2.464 km
极远距离
1.603017E-6 低风险 0.39
CDM_260827-221705-318006-606621
2026-08-27T
22:17:02+0000
2.945 km
极远距离
1.063472E-6 低风险 0.36